[Date Prev][Date Next][Thread Prev][Thread Next] - [Date Index][Thread Index][Author Index]
2 Line ISS Keps 3-20
- Subject: [sarex] 2 Line ISS Keps 3-20
- From: "Dave Larsen PhD" <doc@xxxxxxxxxxx>
- Date: Wed, 20 Mar 2002 01:52:18 -0800
ISS
1 25544U 98067A 02079.18271067 .00059990 00000-0 78322-3 0 2057
2 25544 51.6369 140.1167 0003704 292.8290 115.8922 15.58083000190152
----
Via the sarex mailing list at AMSAT.ORG courtesy of AMSAT-NA.
To unsubscribe, send "unsubscribe sarex" to Majordomo@amsat.org
AMSAT Home